Flag for Canada Weather past 2 weeks in Caledon, Ontario, Canada

Now
61 °F

Light rain. Partly sunny.


Feels Like: 61 °F
Forecast: 61 / 77 °F
Wind: 2 mph from East

Location: Borden

Current Time: Jul 26, 2014 at 7:58:05 AM

Latest Report: Jul 26, 2014 at 7:00 AM


Visibility: 6 mi

Pressure: 29.92 "Hg

Humidity: 94%

Dew point: 59 °F

Location of CaledonLocation

Historic Weather in Caledon — Graph

°F

Caledon temperature yesterday

Maximum temperature yesterday: 77 °F (at 2:00 PM)
Minimum temperature yesterday: 43 °F (at 6:00 AM)
Average temperature yesterday: 62 °F

Past Weeks' High & Low Weather Summary

 TemperatureHumidityPressure
High86 °F (Jul 22, 1:00 PM)100% (Jul 22, 2:01 AM)30.26 "Hg (Jul 22, 2:01 AM)
Low43 °F (Jul 17, 3:00 AM)40% (Jul 24, 5:00 PM)29.64 "Hg (Jul 15, 1:00 PM)
Average65 °F72%30.00 "Hg
* Reported Jul 11 6:00 AM — Jul 26 6:00 AM, Caledon, Weather by CustomWeather, © 2014

Note: Actual official high and low records may vary slightly from our data, if they occured in-between our weather recording intervals... More about our weather records

Advertising

Caledon weather history for previous 24 hours

 ConditionsComfort  
Time TempWeatherWind HumidityBarometerVisibility
6:00 AM
Jul 26
63 °FMostly cloudy.2 mph83%29.91 "Hg9 mi
5:00 AM63 °FMostly cloudy.6 mph77%29.91 "Hg9 mi
4:00 AM61 °FPassing clouds.5 mph83%29.90 "Hg9 mi
3:00 AM63 °FPassing clouds.3 mph77%29.90 "Hg9 mi
2:00 AM63 °FPassing clouds.7 mph77%29.91 "Hg9 mi
1:00 AM61 °FPassing clouds.6 mph83%29.93 "Hg9 mi
12:00 AM59 °FPassing clouds.6 mph82%29.94 "Hg9 mi
11:00 PM
Jul 25
61 °FPassing clouds.6 mph72%29.93 "Hg9 mi
10:00 PM59 °FClear.2 mph77%29.94 "Hg9 mi
9:00 PM66 °FSunny.3 mph60%29.93 "Hg9 mi
8:00 PM72 °FSunny.6 mph50%29.93 "Hg9 mi
7:00 PM73 °FPassing clouds.9 mph47%29.94 "Hg9 mi
6:00 PM75 °FScattered clouds.9 mph44%29.94 "Hg9 mi
5:00 PM77 °FPartly sunny.12 mph42%29.95 "Hg9 mi
4:00 PM77 °FPartly sunny.7 mph42%29.96 "Hg9 mi
3:00 PM75 °FPartly sunny.7 mph44%29.97 "Hg9 mi
2:00 PM77 °FPartly sunny.10 mph42%29.99 "Hg9 mi
1:00 PM75 °FPassing clouds.14 mph44%30.00 "Hg9 mi
12:00 PM73 °FPassing clouds.15 mph47%30.03 "Hg9 mi
11:00 AM72 °FSunny.9 mph53%30.04 "Hg9 mi
10:00 AM68 °FSunny.6 mph60%30.05 "Hg9 mi
9:00 AM63 °FSunny.5 mph68%30.04 "Hg9 mi
8:00 AM55 °FSunny.No wind88%30.06 "Hg9 mi
7:00 AM46 °FSunny.No wind93%30.06 "Hg9 mi
Weather by CustomWeather, © 2014

See weather overviewHow to use our weather pages